Terminal Aerodrome Forecast
Issued by NWS

Home | Current Version | Previous Version | Text Only | Print | Product List | Glossary On
Versions: 1 2 3 4 5 6 7 8 9 10 11 12 13 14 15 16 17 18 19 20 21 22 23 24 25 26 27 28 29 30 31 32 33 34 35 36 37 38 39 40 41 42 43 44 45 46 47
000
FTAK31 PANC 030057 AAA
TAFACD
TAF AMD
PACD 030057Z 0301/0324 36018G25KT P6SM SCT012
     FM030600 03018KT P6SM OVC010
     FM031200 02020G28KT P6SM OVC006
     FM031800 01022G30KT 5SM -RA BR OVC005=

USA.gov is the U.S. government's official web portal to all federal, state and local government web resources and services.